Weather History for Olean, NY

Change the Weather History Date:

Tuesday, August 14, 2012

  Actual Average (KBFD) Record (KBFD)
Temperature  
Mean Temperature 65 °F 64 °F  
Max Temperature 71 °F 76 °F 88 °F (2002)
Min Temperature 59 °F 53 °F 36 °F (1964)
Degree Days  
Heating Degree Days 0 1  
Month to date heating degree days 6  
Since 1 June heating degree days 215  
Since 1 July heating degree days 70  
Cooling Degree Days 0 2  
Month to date cooling degree days 28  
Year to date cooling degree days 152  
Since 1 June cooling degree days 142  
Growing Degree Days 15 (Base 50)    
Moisture  
Dew Point 60 °F    
Average Humidity 92    
Maximum Humidity 100    
Minimum Humidity 64    
Precipitation  
Precipitation 0.00 in 0.13 in 2.49 in (1994)
Month to date precipitation 1.86  
Year to date precipitation 27.70  
Sea Level Pressure  
Sea Level Pressure 29.96 in    
Wind  
Wind Speed 2 mph ()    
Max Wind Speed 10 mph    
Max Gust Speed 18 mph    
Visibility 7.9 miles    
Events Fog , Rain , Thunderstorm    
T = Trace of Precipitation, MM = Missing Value Source: Averaged Metar Reports

Daily Weather History Graph

Daily Weather History Graph

Search for Another Location

Airport:

Trip Planner

Search our weather history database for the weather conditions in past years. The results will help you decide how hot, cold, wet, or windy it might be!

Date:

Astronomy

Aug. 14, 2012 Rise Set
Actual Time 6:20 AM EDT 8:15 PM EDT
Civil Twilight 5:50 AM EDT 8:45 PM EDT
Nautical Twilight 5:13 AM EDT 9:22 PM EDT
Astronomical Twilight 4:32 AM EDT 10:01 PM EDT
Moon 3:14 AM EDT (8/14) 6:09 PM EDT (8/14)
Length of Visible Light 14h 55m
Length of Day
13h 54m
Waning Crescent, 10% of the Moon is Illuminated
Aug 14
Waning Crescent
Aug 17
New
Aug 24
First Quarter
Aug 31
Full
Sep 8
Last Quarter

Hourly Weather History & Observations

Time (EDT) Temp. Dew Point Humidity Pressure Visibility Wind Dir Wind Speed Gust Speed Precip Events Conditions
12:15 AM 62.6 °F 57.2 °F 82% 30.02 in 10.0 mi NW 3.5 mph - N/A   Overcast
12:35 AM 62.6 °F 57.2 °F 82% 30.03 in 10.0 mi Calm Calm - N/A   Mostly Cloudy
12:55 AM 62.6 °F 57.2 °F 82% 30.03 in 10.0 mi Calm Calm - N/A   Overcast
1:15 AM 60.8 °F 57.2 °F 88% 30.02 in 10.0 mi NW 3.5 mph - N/A   Drizzle
1:35 AM 60.8 °F 57.2 °F 88% 30.01 in 10.0 mi Calm Calm - N/A Rain Light Rain
1:55 AM 60.8 °F 57.2 °F 88% 30.01 in 10.0 mi North 4.6 mph - N/A   Drizzle
2:15 AM 60.8 °F 59.0 °F 94% 30.01 in 10.0 mi Calm Calm - N/A   Mostly Cloudy
2:35 AM 60.8 °F 59.0 °F 94% 30.01 in 10.0 mi NW 3.5 mph - N/A   Mostly Cloudy
2:55 AM 59.0 °F 59.0 °F 100% 30.01 in 10.0 mi Calm Calm - N/A   Mostly Cloudy
3:15 AM 59.0 °F 59.0 °F 100% 30.00 in 10.0 mi Calm Calm - N/A   Overcast
3:35 AM 59.0 °F 59.0 °F 100% 29.99 in 10.0 mi NNW 3.5 mph - N/A   Overcast
3:55 AM 59.0 °F 59.0 °F 100% 29.99 in 10.0 mi Calm Calm - N/A   Overcast
4:15 AM 59.0 °F 59.0 °F 100% 29.99 in 10.0 mi Calm Calm - N/A   Overcast
4:35 AM 59.0 °F 59.0 °F 100% 29.99 in 10.0 mi Calm Calm - N/A   Overcast
4:55 AM 59.0 °F 59.0 °F 100% 30.00 in 10.0 mi Calm Calm - N/A   Overcast
5:15 AM 59.0 °F 57.2 °F 94% 30.00 in 10.0 mi Calm Calm - N/A Rain Rain
5:35 AM 59.0 °F 59.0 °F 100% 29.99 in 7.0 mi NW 3.5 mph - N/A   Light Drizzle
5:55 AM 59.0 °F 59.0 °F 100% 29.99 in 7.0 mi Calm Calm - N/A   Overcast
6:15 AM 59.0 °F 59.0 °F 100% 29.99 in 7.0 mi Calm Calm - N/A   Overcast
6:35 AM 59.0 °F 59.0 °F 100% 29.99 in 7.0 mi ENE 3.5 mph - N/A   Overcast
6:55 AM 59.0 °F 59.0 °F 100% 29.99 in 5.0 mi Calm Calm - N/A   Overcast
7:15 AM 59.0 °F 59.0 °F 100% 29.99 in 7.0 mi Calm Calm - N/A   Overcast
7:35 AM 59.0 °F 59.0 °F 100% 29.99 in 5.0 mi ESE 3.5 mph - N/A   Overcast
7:55 AM 59.0 °F 59.0 °F 100% 29.99 in 7.0 mi East 3.5 mph - N/A   Overcast
8:15 AM 59.0 °F 59.0 °F 100% 29.99 in 7.0 mi Calm Calm - N/A   Overcast
8:35 AM 60.8 °F 60.8 °F 100% 29.99 in 10.0 mi East 3.5 mph - N/A   Mostly Cloudy
8:55 AM 62.6 °F 59.0 °F 88% 29.98 in 10.0 mi ESE 4.6 mph - N/A   Overcast
9:15 AM 62.6 °F 59.0 °F 88% 29.97 in 10.0 mi ESE 6.9 mph - N/A   Overcast
9:35 AM 64.4 °F 60.8 °F 88% 29.97 in 10.0 mi ESE 3.5 mph - N/A   Scattered Clouds
9:55 AM 66.2 °F 60.8 °F 83% 29.97 in 10.0 mi SE 3.5 mph - N/A   Mostly Cloudy
10:15 AM 68.0 °F 60.8 °F 78% 29.97 in 10.0 mi Calm Calm - N/A   Scattered Clouds
10:35 AM 68.0 °F 60.8 °F 78% 29.97 in 10.0 mi SSW 4.6 mph - N/A   Clear
10:55 AM 69.8 °F 60.8 °F 73% 29.97 in 10.0 mi SSW 5.8 mph - N/A   Scattered Clouds
11:15 AM 69.8 °F 60.8 °F 73% 29.97 in 10.0 mi SSW 5.8 mph - N/A   Scattered Clouds
11:35 AM 71.6 °F 60.8 °F 69% 29.96 in 10.0 mi South 6.9 mph - N/A   Mostly Cloudy
11:55 AM 71.6 °F 60.8 °F 69% 29.95 in 10.0 mi South 5.8 mph - N/A   Overcast
12:15 PM 71.6 °F 59.0 °F 64% 29.95 in 10.0 mi SSW 5.8 mph - N/A   Scattered Clouds
12:35 PM 69.8 °F 59.0 °F 68% 29.94 in 10.0 mi South 3.5 mph - N/A   Scattered Clouds
12:55 PM 69.8 °F 59.0 °F 68% 29.94 in 10.0 mi SSW 4.6 mph - N/A Rain Light Rain
1:15 PM 66.2 °F 60.8 °F 83% 29.94 in 10.0 mi Calm Calm - N/A Rain Light Rain
1:35 PM 68.0 °F 62.6 °F 83% 29.94 in 10.0 mi Calm Calm - N/A   Overcast
1:55 PM 64.4 °F 60.8 °F 88% 29.93 in 10.0 mi Calm Calm - N/A   Overcast
2:15 PM 62.6 °F 60.8 °F 94% 29.93 in 4.0 mi Calm Calm - N/A Rain Rain
2:35 PM 62.6 °F 62.6 °F 100% 29.93 in 7.0 mi Calm Calm - N/A Rain , Thunderstorm Thunderstorms and Rain
2:55 PM 64.4 °F 62.6 °F 94% 29.92 in 10.0 mi Calm Calm - N/A   Overcast
3:15 PM 69.8 °F 62.6 °F 78% 29.91 in 10.0 mi Calm Calm - N/A   Scattered Clouds
3:35 PM 69.8 °F 64.4 °F 83% 29.91 in 10.0 mi NNW 3.5 mph - N/A   Scattered Clouds
3:55 PM 68.0 °F 62.6 °F 83% 29.90 in 10.0 mi Calm Calm - N/A Thunderstorm Overcast
4:15 PM 64.4 °F 62.6 °F 94% 29.91 in 3.0 mi NW 5.8 mph - N/A Rain , Thunderstorm Heavy Thunderstorms and Rain
4:35 PM 62.6 °F 60.8 °F 94% 29.92 in 5.0 mi NW 10.4 mph 18.4 mph N/A Rain , Thunderstorm Light Thunderstorms and Rain
4:55 PM 64.4 °F 62.6 °F 94% 29.92 in 10.0 mi WNW 8.1 mph - N/A Thunderstorm Overcast
5:15 PM 62.6 °F 62.6 °F 100% 29.91 in 10.0 mi NNW 6.9 mph - N/A   Mostly Cloudy
5:35 PM 64.4 °F 60.8 °F 88% 29.91 in 10.0 mi NNW 5.8 mph - N/A   Mostly Cloudy
5:55 PM 62.6 °F 60.8 °F 94% 29.91 in 10.0 mi NW 4.6 mph - N/A   Mostly Cloudy
6:15 PM 62.6 °F 60.8 °F 94% 29.92 in 10.0 mi NNW 4.6 mph - N/A   Overcast
6:35 PM 62.6 °F 60.8 °F 94% 29.91 in 10.0 mi NNW 4.6 mph - N/A Thunderstorm Thunderstorm
6:55 PM 62.6 °F 60.8 °F 94% 29.92 in 10.0 mi NNW 3.5 mph - N/A Thunderstorm Mostly Cloudy
7:15 PM 62.6 °F 60.8 °F 94% 29.92 in 10.0 mi Calm Calm - N/A   Mostly Cloudy
7:35 PM 62.6 °F 60.8 °F 94% 29.92 in 7.0 mi Calm Calm - N/A   Overcast
7:55 PM 62.6 °F 60.8 °F 94% 29.92 in 7.0 mi Calm Calm - N/A   Overcast
8:15 PM 62.6 °F 62.6 °F 100% 29.93 in 5.0 mi Calm Calm - N/A Rain Light Rain
8:35 PM 60.8 °F 60.8 °F 100% 29.93 in 4.0 mi Calm Calm - N/A Rain Light Rain
8:55 PM 60.8 °F 60.8 °F 100% 29.93 in 3.0 mi ENE 3.5 mph - N/A   Light Drizzle
9:15 PM 60.8 °F 60.8 °F 100% 29.94 in 3.0 mi Calm Calm - N/A   Overcast
9:35 PM 60.8 °F 60.8 °F 100% 29.94 in 1.0 mi Calm Calm - N/A   Overcast
9:55 PM 60.8 °F 60.8 °F 100% 29.94 in 1.8 mi East 3.5 mph - N/A   Overcast
10:15 PM 60.8 °F 60.8 °F 100% 29.94 in 2.0 mi East 3.5 mph - N/A   Overcast
10:35 PM 60.8 °F 60.8 °F 100% 29.94 in 1.0 mi Calm Calm - N/A   Overcast
10:55 PM 60.8 °F 60.8 °F 100% 29.94 in 0.5 mi Calm Calm - N/A Fog Fog
11:15 PM 60.8 °F 60.8 °F 100% 29.94 in 0.8 mi Calm Calm - N/A   Overcast
11:35 PM 60.8 °F 60.8 °F 100% 29.94 in 1.5 mi Calm Calm - N/A   Overcast
11:55 PM 60.8 °F 60.8 °F 100% 29.94 in 0.5 mi Calm Calm - N/A Fog Fog